Home   Weather   Port Vila   Past weeks

Flag for Vanuatu Past Weather in Port Vila, Vanuatu — Yesterday and Last 2 Weeks

Now
73 °F

Passing clouds.


Feels Like: 70 °F
Forecast: 76 / 86 °F
Wind: 3 mph from East

Location: Bauerfield Efate

Current Time: Jan 20, 2017 at 12:28:52 am

Latest Report: Jan 20, 2017 at 12:00 am


Visibility: N/A

Pressure: 29.74 "Hg

Humidity: 94%

Dew Point: 72 °F

Location of Port VilaLocation

Past Weather in Port Vila — Graph

°F

Port Vila Temperature Yesterday

Maximum temperature yesterday: 86 °F (at 11:00 am)
Minimum temperature yesterday: 70 °F (at 4:00 am)
Average temperature yesterday: 78 °F

High & Low Weather Summary for the Past Weeks

 TemperatureHumidityPressure
High91 °F (Jan 5, 1:00 pm)100% (Jan 4, 11:00 pm)29.92 "Hg (Jan 4, 11:00 pm)
Low70 °F (Jan 19, 4:00 am)62% (Jan 18, 4:00 pm)29.68 "Hg (Jan 7, 3:00 pm)
Average81 °F87%29.80 "Hg
* Reported Jan 4 11:00 pm — Jan 19 11:00 pm, Port Vila, Weather by CustomWeather, © 2017

Note: Actual official high and low records may vary slightly from our data, if they occured in-between our weather recording intervals... More about our weather records

Advertising

Port Vila Weather History for the Previous 24 Hours

Scroll right to see more
 ConditionsComfort  
Time TempWeatherWind HumidityBarometerVisibility
11:00 pm
Thu, Jan 19
75 °FPassing clouds.1 mph89%29.77 "HgN/A
10:00 pm73 °FPassing clouds.3 mph94%29.77 "HgN/A
9:00 pm73 °FPassing clouds.3 mph94%29.77 "HgN/A
8:00 pm75 °FPassing clouds.3 mph94%29.77 "HgN/A
7:00 pm79 °FPassing clouds.5 mph84%29.74 "HgN/A
6:00 pm82 °FPassing clouds.7 mph74%29.74 "HgN/A
5:00 pm84 °FScattered clouds.9 mph66%29.71 "HgN/A
4:00 pm86 °FScattered clouds.8 mph66%29.71 "HgN/A
3:00 pm86 °FScattered clouds.9 mph66%29.71 "HgN/A
2:00 pm86 °FBroken clouds.12 mph66%29.71 "HgN/A
1:00 pm86 °FBroken clouds.13 mph70%29.74 "HgN/A
12:00 pm86 °FBroken clouds.10 mph66%29.74 "HgN/A
11:00 am86 °FPartly sunny.6 mph70%29.74 "HgN/A
10:00 am84 °FPartly sunny.9 mph70%29.74 "HgN/A
9:00 am84 °FBroken clouds.8 mph66%29.77 "HgN/A
8:00 am82 °FScattered clouds.7 mph74%29.77 "HgN/A
7:00 am77 °FPassing clouds.No wind83%29.77 "HgN/A
6:00 am70 °FPassing clouds.3 mph100%29.74 "HgN/A
5:00 am70 °FPassing clouds.3 mph100%29.74 "HgN/A
4:00 am70 °FPassing clouds.2 mph100%29.74 "HgN/A
3:00 am72 °FPassing clouds.3 mph94%29.74 "HgN/A
2:00 am72 °FPassing clouds.3 mph100%29.74 "HgN/A
1:00 am72 °FPassing clouds.2 mph100%29.77 "HgN/A
12:00 am73 °FPassing clouds.3 mph94%29.80 "HgN/A
Weather by CustomWeather, © 2017

See weather overviewHow to use our weather pages